CAPE
1661 986 160 66 50 509 464 60 115 71 142 42 131 131 110 337 499 359 337 187 54 13 16 11 39 181 417 658 683 863 976 671 623 616 588 529 528 560
1674 973 316 562 671 553 540 439 411 148 101 160 253 466 143 180 309 384 493 340 98 1 0 0 0 0 0 15 77 148 416 562 510 467 433 428 479 508
1796 1233 1024 999 908 698 695 538 417 404 202 145 250 37 385 208 144 495 470 493 367 54 0 0 0 0 0 0 0 0 13 70 145 206 228 255 127 256
1655 1596 1240 1338 1020 660 688 722 651 711 485 382 395 62 495 646 528 216 282 420 585 280 4 0 0 0 0 0 0 0 0 0 0 0 1 41 111 76
1609 1440 1502 1486 1191 1137 1115 934 813 883 776 613 481 479 665 726 733 166 406 816 684 560 135 34 0 0 0 0 0 0 0 0 0 0 0 0 0 0
1760 1819 1484 1238 1272 1252 1246 1096 1053 857 604 502 207 196 230 477 654 659 612 356 288 350 355 129 17 0 0 0 0 0 0 0 0 0 0 0 0 0
1670 1802 1505 1201 1181 1090 1106 1241 1006 1003 602 422 95 444 593 141 306 430 463 693 616 617 553 511 97 53 12 0 0 0 0 0 0 0 0 0 0 0
1983 1837 1522 1355 1021 848 625 604 774 936 623 244 143 468 255 189 378 286 296 252 552 812 911 456 316 354 449 422 76 0 0 0 0 0 0 0 0 0
1903 1701 1505 1297 1441 1529 1054 593 420 264 68 7 123 484 526 682 584 530 340 234 237 586 344 258 386 240 300 593 330 65 0 0 0 0 0 0 0 0
1821 1700 1633 1375 1432 1706 1075 1603 1330 995 610 359 265 351 782 921 855 804 455 532 427 303 292 170 173 93 118 152 173 154 20 0 0 0 0 0 0 0
1826 1801 1862 1656 1630 1234 1276 1125 1154 969 471 711 304 115 133 18 14 152 440 275 113 121 390 100 99 179 179 122 232 135 62 3 3 0 0 0 0 0
1731 1819 1529 1530 1298 1077 1320 1289 1040 959 678 602 502 251 76 90 6 33 306 491 219 50 138 77 74 38 33 38 27 42 2 2 6 12 2 0 0 0
1629 1619 1748 1508 1116 883 1085 969 1111 782 709 585 374 407 361 501 496 319 395 247 358 263 288 125 92 99 76 76 16 19 50 6 0 0 0 0 0 0
1703 1478 1326 924 751 519 399 677 427 298 504 181 338 414 266 207 211 328 484 587 448 538 513 161 85 35 18 5 33 0 1 6 1 0 0 0 0 0
1487 1430 895 584 377 277 191 183 104 413 511 347 287 368 326 383 549 363 155 582 454 425 399 518 263 153 126 20 43 8 0 0 1 0 0 0 0 1
809 900 890 588 459 333 358 100 179 437 457 354 367 383 418 497 590 390 211 112 280 315 419 594 632 485 106 5 9 8 9 0 0 0 0 2 2 2
840 1311 1034 878 703 753 590 554 629 527 407 364 327 333 317 364 327 282 31 51 83 141 169 207 375 482 204 126 68 75 24 9 11 0 0 1 1 0
413 663 381 536 510 445 368 490 616 482 469 401 277 291 230 229 209 251 326 443 308 230 223 116 42 171 228 263 152 152 183 146 199 156 30 40 17 13
359 544 413 314 254 251 231 199 211 275 333 341 409 531 391 300 303 297 334 362 491 363 123 21 4 70 35 9 25 4 10 41 187 329 435 339 170 89
69 42 20 30 79 123 110 114 104 125 119 137 132 180 213 275 345 316 350 336 335 395 293 136 41 16 16 48 48 77 8 21 4 2 53 162 0 0
15 4 4 5 19 35 35 31 17 32 23 69 115 125 150 128 53 51 89 126 98 188 280 237 95 37 20 116 122 53 47 0 0 0 0 2 18 30
0 0 1 3 12 13 12 18 30 28 20 8 2 0 0 0 0 9 6 5 10 24 32 5 6 18 101 73 20 4 7 8 0 0 0 0 0 0
4 3 10 8 0 0 6 4 10 5 2 16 8 1 0 4 16 18 111 185 171 92 6 0 31 0 0 0 1 1 6 22 17 0 0 0 0 0
CIN
-0 -15 -75 -76 -71 -0 -0 -26 -9 -8 -0 -45 -16 -57 -45 -21 -16 -25 -6 -35 -75 -95 -111 -111 -107 -66 -45 -35 -33 -27 -15 -33 -35 -31 -33 -33 -22 -20
-0 -14 -60 -25 -12 -4 -6 -2 -2 -4 -1 -12 -22 -5 -46 -36 -23 -20 -1 -6 -42 -17 -0 -0 -0 -0 -0 -90 -119 -95 -58 -38 -41 -46 -34 -32 -24 -18
-1 -0 -6 -2 -0 -9 -3 -2 -5 -4 -3 -31 -12 -29 -4 -25 -28 -11 -15 -8 -14 -75 -0 -0 -0 -0 -0 -0 -0 -0 -51 -145 -110 -79 -68 -66 -85 -57
-4 -1 -8 -0 -0 -5 -3 -1 -3 -0 -2 -4 -12 -30 -2 -4 -12 -13 -22 -17 -1 -31 -17 -0 -0 -0 -0 -0 -0 -0 -0 -0 -0 -0 -7 -119 -91 -78
-7 -7 -1 -0 -0 -0 -0 -0 -2 -0 -0 -0 -0 -2 -1 -3 -1 -38 -5 -0 -3 -4 -58 -120 -0 -0 -0 -0 -0 -0 -0 -0 -0 -0 -0 -0 -0 -0
-2 -0 -1 -1 -1 -0 -0 -1 -0 -0 -0 -2 -13 -3 -2 -4 -2 -2 -3 -20 -14 -17 -4 -48 -34 -0 -0 -0 -0 -0 -0 -0 -0 -0 -0 -0 -0 -0
-7 -0 -15 -27 -17 -15 -6 -1 -0 -0 -3 -7 -38 -5 -0 -8 -0 -0 -1 -4 -10 -5 -5 -10 -49 -73 -101 -0 -0 -0 -0 -0 -0 -0 -0 -0 -0 -0
-4 -13 -33 -40 -66 -75 -89 -68 -32 -5 -10 -44 -52 -11 -23 -26 -0 -1 -0 -1 -0 -4 -2 -14 -18 -15 -4 -2 -122 -0 -0 -0 -0 -0 -0 -0 -0 -0
-20 -30 -42 -33 -28 -4 -51 -88 -107 -124 -190 -131 -107 -20 -12 -0 -1 -0 -1 -1 -0 -0 -3 -1 -4 -11 -17 -19 -16 -63 -2 -0 -0 -0 -0 -0 -0 -0
-18 -27 -26 -20 -5 -3 -16 -6 -2 -16 -63 -101 -95 -56 -3 -0 -0 -0 -0 -0 -0 -0 -0 -1 -0 -17 -28 -20 -29 -29 -159 -0 -0 -0 -0 -0 -0 -0
-19 -14 -4 -12 -5 -25 -2 -2 -1 -3 -10 -30 -60 -106 -113 -29 -16 -51 -3 -2 -9 -10 -0 -9 -1 -0 -1 -5 -6 -33 -52 -102 -193 -0 -0 -0 -0 -0
-11 -6 -21 -8 -20 -19 -6 -1 -1 -2 -1 -6 -35 -82 -125 -121 -11 -48 -10 -0 -1 -30 -10 -0 -2 -7 -27 -58 -46 -36 -65 -110 -151 -166 -180 -0 -0 -0
-3 -6 -2 -8 -21 -34 -24 -10 -5 -21 -13 -7 -1 -1 -1 -4 -12 -71 -42 -20 -1 -0 -0 -0 -5 -0 -0 -10 -96 -42 -42 -72 -0 -0 -0 -0 -0 -0
-1 -7 -6 -43 -55 -71 -94 -56 -75 -74 -10 -7 -1 -1 -3 -2 -8 -16 -28 -7 -2 -5 -0 -9 -0 -2 -5 -1 -35 -0 -0 -109 -0 -0 -0 -0 -0 -0
-14 -28 -67 -85 -120 -123 -123 -129 -138 -45 -20 -3 -1 -3 -1 -0 -6 -16 -43 -2 -14 -15 -9 -1 -0 -1 -0 -25 -13 -0 -0 -0 -0 -0 -0 -0 -0 -0
-82 -53 -47 -67 -80 -86 -70 -156 -93 -25 -4 -1 -2 -2 -1 -7 -11 -19 -26 -22 -20 -20 -12 -2 -3 -2 -1 -0 -1 -0 -0 -0 -0 -0 -0 -0 -0 -0
-22 -0 -0 -1 -5 -1 -5 -1 -1 -0 -1 -1 -1 -1 -2 -3 -17 -46 -68 -66 -35 -25 -20 -12 -10 -8 -3 -2 -3 -4 -3 -7 -14 -0 -0 -0 -0 -0
-64 -9 -49 -4 -0 -2 -4 -0 -0 -6 -2 -4 -12 -3 -1 -1 -1 -6 -5 -5 -10 -26 -7 -21 -38 -1 -1 -3 -13 -4 -0 -1 -3 -12 -6 -15 -13 -29
-15 -0 -1 -5 -9 -2 -1 -3 -3 -2 -0 -0 -0 -0 -5 -3 -2 -6 -3 -1 -0 -7 -46 -86 -8 -20 -10 -5 -21 -15 -61 -19 -5 -5 -4 -1 -0 -4
-119 -170 -232 -268 -179 -80 -61 -33 -41 -31 -28 -22 -29 -9 -5 -1 -0 -2 -0 -0 -0 -0 -4 -18 -52 -52 -15 -9 -10 -62 -141 -57 -53 -55 -17 -11 -0 -19
-97 -1 -0 -0 -92 -167 -152 -135 -61 -60 -81 -39 -10 -7 -2 -11 -56 -80 -59 -21 -36 -6 -0 -0 -9 -6 -39 -2 -2 -26 -33 -0 -0 -0 -0 -58 -46 -23
-0 -0 -1 -1 -1 -0 -0 -0 -1 -1 -4 -2 -0 -0 -0 -0 -0 -56 -92 -197 -200 -123 -87 -10 -61 -27 -1 -0 -14 -6 -2 -3 -0 -0 -0 -0 -0 -2
-2 -3 -1 -0 -5 -0 -4 -1 -1 -4 -10 -2 -2 -9 -0 -3 -0 -1 -2 -0 -0 -4 -104 -0 -3 -0 -10 -0 -9 -6 -49 -18 -14 -47 -0 -0 -0 -0
Wind_Speed
8 16 21 20 13 11 8 6 4 14 16 11 4 4 9 12 25 31 30 22 23 24 26 30 33 34 36 34 33 29 25 25 25 27 27 28 26 22
3 11 23 24 24 17 14 9 6 4 14 15 11 4 5 7 11 30 31 12 24 24 26 29 33 36 38 37 34 31 28 26 26 25 25 27 25 22
3 1 3 20 24 21 20 14 9 5 2 11 20 27 2 1 4 16 36 37 21 26 26 28 31 35 38 38 36 34 34 29 28 29 28 30 33 28
6 7 11 6 18 20 11 12 16 14 13 10 10 20 5 3 4 5 13 11 30 11 23 27 29 31 33 35 36 36 35 34 32 32 32 33 33 35
5 4 6 6 6 7 8 12 12 14 17 20 28 23 21 17 7 9 14 18 9 18 14 19 24 27 29 30 31 33 36 37 37 35 34 34 33 36
5 5 6 6 7 7 9 9 15 18 18 23 27 28 23 19 18 19 14 9 10 15 12 15 15 17 20 26 29 31 31 34 37 37 37 36 34 28
5 5 5 5 7 10 11 12 14 14 18 18 28 19 21 23 20 21 22 20 14 17 15 18 17 23 29 29 30 25 28 28 28 30 32 35 34 23
10 9 5 4 5 10 12 14 17 20 22 26 29 27 24 17 16 16 19 24 26 20 24 22 20 19 26 29 25 26 29 28 28 27 27 26 26 25
5 5 5 5 4 3 2 13 18 15 12 17 23 24 24 21 19 20 15 16 20 20 20 29 21 24 26 31 33 24 21 23 27 28 30 30 29 30
5 4 4 3 3 3 3 6 16 18 12 13 14 16 19 24 24 23 22 21 21 18 19 26 27 24 29 29 37 34 32 30 24 25 27 29 30 32
2 2 5 3 3 2 2 3 2 15 23 9 15 19 19 21 21 23 22 22 25 21 18 21 30 23 24 27 32 29 29 29 29 29 36 34 32 33
1 3 4 6 9 3 1 4 3 3 6 15 18 21 18 18 17 17 20 23 24 26 21 20 22 19 26 29 34 33 32 31 36 33 37 36 33 32
12 12 7 2 5 4 5 4 4 4 13 13 12 12 14 13 14 14 17 19 21 23 23 18 20 19 20 26 25 26 29 31 27 30 35 34 31 32
17 18 17 15 7 6 6 7 8 9 10 8 11 14 15 16 17 16 12 16 21 22 25 16 22 19 20 22 21 19 18 23 20 19 27 30 29 25
16 20 18 20 19 14 10 12 13 13 12 13 14 18 15 17 22 24 27 12 18 22 22 18 21 24 21 25 25 22 20 19 16 17 14 17 15 16
16 17 17 16 17 18 18 16 16 16 17 18 19 19 18 19 23 23 24 26 26 26 23 20 19 20 24 24 23 23 20 21 18 15 15 17 17 18
20 18 17 18 19 19 20 19 18 18 18 19 21 21 18 17 20 22 23 26 27 27 31 31 19 20 23 22 26 23 21 18 17 18 16 19 19 18
17 17 17 18 20 22 23 23 22 22 22 25 25 23 22 22 23 23 22 23 26 29 30 34 32 29 25 27 20 27 29 26 21 19 17 19 22 19
19 19 20 22 23 24 25 26 27 26 26 26 27 26 26 25 25 26 29 31 29 29 29 31 28 32 40 41 33 26 32 32 30 22 21 21 24 24
19 21 22 22 23 24 24 25 26 26 26 26 26 26 27 27 27 29 31 31 32 30 27 26 27 26 27 27 32 31 25 30 30 29 26 26 22 24
20 21 21 22 22 23 24 25 26 26 26 25 25 25 26 26 28 28 29 31 32 31 30 30 31 26 21 23 28 29 22 17 22 22 26 30 29 27
20 20 21 21 22 23 24 25 25 25 25 25 25 25 25 26 27 30 29 30 30 30 32 32 32 29 25 23 30 34 30 24 22 19 21 25 25 26
20 21 21 22 23 24 24 26 26 26 27 27 28 28 29 29 29 27 29 30 29 29 31 32 28 26 27 28 29 29 30 29 28 29 24 22 19 21
Wind_Direction
342 321 314 322 337 318 314 324 338 330 330 336 2 148 165 177 196 207 201 190 193 195 198 199 200 201 203 203 203 202 199 200 202 206 207 210 210 207
338 338 312 305 307 316 311 321 330 331 326 328 332 4 145 170 181 212 211 216 196 197 200 203 204 205 207 208 208 208 207 206 206 207 208 211 211 210
157 143 357 314 304 305 298 318 331 341 308 209 305 281 284 149 174 192 233 228 244 202 202 204 206 207 209 210 210 211 212 212 212 213 214 216 221 217
179 179 194 163 317 303 338 328 323 332 333 340 332 306 193 274 220 290 285 284 211 213 204 206 207 208 210 211 212 213 213 214 215 216 219 220 222 225
140 117 129 91 88 65 25 352 354 341 329 322 296 310 307 307 299 217 208 289 276 280 212 211 209 209 211 213 215 215 215 216 218 219 221 221 222 225
41 95 56 63 40 28 10 12 342 331 337 322 314 309 315 317 304 299 297 284 238 283 268 269 241 234 222 216 216 218 219 218 219 220 222 223 223 224
88 51 55 46 18 359 353 347 343 347 339 342 318 340 331 322 318 308 296 295 286 287 283 286 276 273 273 268 264 232 227 227 227 225 224 223 225 253
144 140 104 70 13 341 332 330 327 325 324 319 312 318 327 343 340 329 313 297 294 293 288 286 279 271 275 274 270 258 259 251 247 246 245 244 245 250
111 112 90 136 124 67 6 326 319 322 330 333 327 326 328 337 337 333 330 317 306 299 302 291 292 280 278 275 279 266 254 253 255 254 257 260 260 264
131 117 128 107 91 85 54 5 329 323 328 332 335 336 334 330 327 327 326 322 320 310 306 300 300 292 287 277 268 271 275 269 262 263 263 261 263 266
107 142 170 162 180 356 170 181 353 333 317 321 326 326 325 328 330 329 328 325 318 322 320 309 299 314 298 285 276 276 279 282 278 276 275 273 270 269
182 207 208 209 349 342 273 212 235 250 339 336 329 324 327 325 325 327 326 322 322 318 326 317 322 308 308 290 280 281 281 281 280 283 277 275 273 272
326 329 334 270 218 249 243 251 268 311 337 337 333 329 328 327 323 316 316 321 319 315 320 324 324 319 315 304 303 299 289 286 291 286 279 277 273 268
321 323 327 329 318 291 277 265 303 314 320 314 324 330 326 326 326 329 316 313 316 315 316 317 317 319 318 317 316 318 309 299 297 294 291 282 281 266
320 320 323 323 324 321 307 313 315 314 309 313 318 323 322 324 326 321 320 310 317 315 309 308 309 310 313 310 312 315 313 308 306 305 302 295 295 290
324 321 322 325 326 325 325 322 318 315 313 315 318 322 324 319 318 320 317 314 317 313 310 303 301 305 304 305 308 308 310 308 312 303 303 298 294 290
329 330 329 326 325 323 322 322 323 323 322 321 319 320 323 323 324 323 319 314 312 313 309 308 293 292 298 298 300 302 304 303 305 305 298 298 299 298
342 339 337 335 330 327 325 325 323 323 322 321 321 320 319 319 320 322 320 318 317 314 312 308 304 302 296 293 289 298 299 300 299 300 295 298 300 297
337 339 338 334 331 329 326 325 325 325 325 323 321 318 317 317 317 315 313 313 313 314 315 319 302 302 289 294 299 310 297 297 305 297 297 294 296 295
341 338 336 335 334 333 332 330 329 327 327 327 327 327 324 321 320 317 315 315 313 313 315 317 311 312 310 310 307 308 310 301 300 300 300 296 308 308
345 344 342 339 339 338 336 333 332 332 331 331 332 331 331 328 323 322 319 317 316 314 313 313 315 315 312 313 308 311 318 321 307 305 299 293 295 295
350 349 347 347 346 345 342 339 337 337 337 335 335 334 333 331 328 323 321 317 316 313 312 312 312 311 309 308 304 303 307 315 311 310 305 301 300 296
353 350 351 350 350 349 346 342 340 342 340 337 335 335 331 330 329 330 327 324 320 319 317 313 315 315 307 305 308 306 307 305 306 304 305 295 292 294